| time (UTC) | temp F | wind direction | speed MPH | gust MPH | rain 1hr in | rain 24hr in | rain mn in | humidity % | barometer mb |
| 20260509061404 | 53 | 134 | 0.0 | 0.0 | 0.00 | 0.01 | 0.00 | 73 | 1011.1 |
| 20260509060904 | 53 | 134 | 0.0 | 0.0 | 0.00 | 0.01 | 0.00 | 73 | 1011.2 |
| 20260509060405 | 53 | 133 | 0.0 | 0.0 | 0.00 | 0.02 | 0.00 | 73 | 1011.2 |
| 20260509055904 | 53 | 134 | 0.0 | 0.0 | 0.00 | 0.02 | 0.00 | 73 | 1011.2 |
| 20260509055404 | 54 | 134 | 0.0 | 0.0 | 0.00 | 0.02 | 0.00 | 73 | 1011.2 |
| 20260509054905 | 53 | 134 | 0.0 | 0.0 | 0.00 | 0.02 | 0.00 | 73 | 1011.4 |
| 20260509054404 | 53 | 134 | 0.0 | 0.0 | 0.00 | 0.02 | 0.00 | 71 | 1011.6 |
| 20260509053405 | 53 | 134 | 0.0 | 0.0 | 0.00 | 0.02 | 0.00 | 72 | 1011.6 |
| 20260509052904 | 53 | 134 | 0.0 | 0.0 | 0.00 | 0.02 | 0.00 | 70 | 1011.5 |
| 20260509052405 | 53 | 134 | 0.0 | 0.0 | 0.00 | 0.02 | 0.00 | 70 | 1011.5 |
| 20260509051904 | 54 | 133 | 0.0 | 0.0 | 0.00 | 0.02 | 0.00 | 68 | 1011.5 |
| 20260509051406 | 54 | 133 | 0.0 | 0.0 | 0.00 | 0.02 | 0.00 | 67 | 1011.4 |
| 20260509050905 | 54 | 133 | 0.0 | 0.0 | 0.00 | 0.02 | 0.00 | 66 | 1011.4 |
| 20260509045905 | 53 | 133 | 0.0 | 0.0 | 0.00 | 0.02 | 0.00 | 67 | 1011.4 |
| 20260509045405 | 53 | 134 | 0.0 | 0.0 | 0.00 | 0.02 | 0.00 | 68 | 1011.5 |
| 20260509044906 | 53 | 134 | 0.0 | 0.0 | 0.00 | 0.02 | 0.00 | 68 | 1011.5 |
| 20260509044404 | 53 | 133 | 0.0 | 0.0 | 0.00 | 0.02 | 0.00 | 68 | 1011.4 |
| 20260509043904 | 53 | 134 | 0.0 | 0.0 | 0.00 | 0.02 | 0.00 | 68 | 1011.4 |
| 20260509043405 | 53 | 134 | 0.0 | 0.0 | 0.00 | 0.02 | 0.00 | 68 | 1011.4 |
| 20260509042904 | 53 | 134 | 0.0 | 0.0 | 0.00 | 0.02 | 0.00 | 68 | 1011.3 |
| 20260509042406 | 53 | 134 | 0.0 | 0.0 | 0.00 | 0.02 | 0.00 | 68 | 1011.3 |
| 20260509041904 | 53 | 134 | 0.0 | 0.0 | 0.00 | 0.02 | 0.00 | 67 | 1011.4 |
| 20260509040906 | 53 | 133 | 0.0 | 0.0 | 0.00 | 0.02 | 0.00 | 66 | 1011.4 |
| 20260509034905 | 54 | 133 | 0.0 | 0.0 | 0.00 | 0.02 | 0.02 | 64 | 1011.5 |
| 20260509034404 | 55 | 133 | 0.0 | 0.0 | 0.00 | 0.02 | 0.02 | 63 | 1011.6 |
| 20260509033904 | 55 | 134 | 0.0 | 0.0 | 0.00 | 0.02 | 0.02 | 63 | 1011.6 |
| 20260509033405 | 55 | 133 | 0.0 | 0.0 | 0.00 | 0.02 | 0.02 | 63 | 1011.6 |
| 20260509032405 | 55 | 134 | 0.0 | 0.0 | 0.00 | 0.02 | 0.02 | 62 | 1011.7 |
| 20260509031905 | 56 | 134 | 0.0 | 0.0 | 0.00 | 0.02 | 0.02 | 62 | 1011.7 |
| 20260509031404 | 56 | 134 | 0.0 | 0.0 | 0.00 | 0.02 | 0.02 | 62 | 1011.7 |
| 20260509030904 | 56 | 134 | 0.0 | 0.0 | 0.00 | 0.02 | 0.02 | 62 | 1011.8 |
| 20260509030405 | 56 | 128 | 0.0 | 1.0 | 0.00 | 0.02 | 0.02 | 61 | 1011.7 |
| 20260509024905 | 56 | 136 | 0.0 | 2.0 | 0.00 | 0.02 | 0.02 | 60 | 1011.7 |
| 20260509024405 | 56 | 133 | 0.0 | 3.0 | 0.00 | 0.02 | 0.02 | 60 | 1011.7 |
| 20260509023903 | 56 | 139 | 0.0 | 2.0 | 0.00 | 0.02 | 0.02 | 59 | 1011.6 |
| 20260509023404 | 56 | 141 | 1.0 | 5.0 | 0.00 | 0.02 | 0.02 | 58 | 1011.6 |
| 20260509022903 | 55 | 316 | 0.0 | 0.0 | 0.00 | 0.02 | 0.02 | 60 | 1011.5 |
| 20260509022405 | 55 | 314 | 0.0 | 0.0 | 0.00 | 0.02 | 0.02 | 59 | 1011.5 |
| 20260509021904 | 55 | 314 | 0.0 | 0.0 | 0.00 | 0.02 | 0.02 | 59 | 1011.5 |
| 20260509021403 | 55 | 314 | 0.0 | 0.0 | 0.00 | 0.02 | 0.02 | 59 | 1011.5 |
| 20260509020903 | 55 | 314 | 0.0 | 0.0 | 0.00 | 0.02 | 0.02 | 59 | 1011.3 |
| 20260509020404 | 55 | 314 | 0.0 | 0.0 | 0.00 | 0.02 | 0.02 | 60 | 1011.3 |
| 20260509015903 | 55 | 314 | 0.0 | 0.0 | 0.00 | 0.02 | 0.02 | 59 | 1011.4 |
| 20260509015405 | 55 | 314 | 0.0 | 0.0 | 0.00 | 0.02 | 0.02 | 60 | 1011.3 |
| 20260509014405 | 55 | 314 | 0.0 | 0.0 | 0.00 | 0.02 | 0.02 | 59 | 1011.2 |
| 20260509013904 | 55 | 313 | 0.0 | 0.0 | 0.00 | 0.02 | 0.02 | 60 | 1011.1 |
| 20260509013404 | 55 | 313 | 0.0 | 0.0 | 0.00 | 0.02 | 0.02 | 59 | 1011.0 |
| 20260509012904 | 56 | 313 | 0.0 | 0.0 | 0.00 | 0.02 | 0.02 | 58 | 1010.9 |
| 20260509012404 | 56 | 313 | 0.0 | 0.0 | 0.00 | 0.02 | 0.02 | 58 | 1010.8 |
| 20260509011405 | 56 | 313 | 0.0 | 0.0 | 0.00 | 0.02 | 0.02 | 57 | 1010.6 |
| 20260509010904 | 56 | 313 | 0.0 | 0.0 | 0.00 | 0.02 | 0.02 | 58 | 1010.5 |
| 20260509005404 | 56 | 313 | 0.0 | 0.0 | 0.00 | 0.02 | 0.02 | 58 | 1010.3 |
| 20260509004904 | 56 | 313 | 0.0 | 0.0 | 0.00 | 0.02 | 0.02 | 57 | 1010.2 |
| 20260509003904 | 56 | 313 | 0.0 | 0.0 | 0.00 | 0.02 | 0.02 | 59 | 1010.1 |
| 20260509003405 | 56 | 313 | 0.0 | 0.0 | 0.00 | 0.02 | 0.02 | 57 | 1010.1 |
| 20260509002404 | 56 | 313 | 0.0 | 0.0 | 0.00 | 0.02 | 0.02 | 57 | 1010.0 |
| 20260509001904 | 56 | 313 | 0.0 | 0.0 | 0.00 | 0.02 | 0.02 | 56 | 1010.0 |
| 20260509000904 | 56 | 313 | 0.0 | 0.0 | 0.00 | 0.02 | 0.02 | 56 | 1010.1 |
| 20260509000404 | 56 | 313 | 0.0 | 0.0 | 0.00 | 0.02 | 0.02 | 56 | 1010.1 |
| 20260508235904 | 56 | 313 | 0.0 | 0.0 | 0.00 | 0.02 | 0.02 | 56 | 1010.1 |
| 20260508234904 | 56 | 313 | 0.0 | 0.0 | 0.00 | 0.02 | 0.02 | 56 | 1010.2 |
| 20260508234404 | 56 | 313 | 0.0 | 0.0 | 0.00 | 0.02 | 0.02 | 56 | 1010.0 |
| 20260508233905 | 57 | 313 | 0.0 | 0.0 | 0.00 | 0.02 | 0.02 | 56 | 1010.0 |
| 20260508233404 | 57 | 313 | 0.0 | 0.0 | 0.00 | 0.02 | 0.02 | 56 | 1009.8 |
| 20260508232905 | 57 | 313 | 0.0 | 0.0 | 0.00 | 0.02 | 0.02 | 56 | 1009.8 |
| 20260508232405 | 57 | 313 | 0.0 | 3.0 | 0.00 | 0.02 | 0.02 | 56 | 1009.8 |
| 20260508231904 | 57 | 322 | 0.0 | 2.0 | 0.00 | 0.02 | 0.02 | 56 | 1009.8 |
| 20260508231405 | 57 | 325 | 0.0 | 1.0 | 0.00 | 0.02 | 0.02 | 55 | 1009.9 |
| 20260508230905 | 57 | 323 | 0.0 | 1.0 | 0.00 | 0.02 | 0.02 | 55 | 1009.9 |
| 20260508230405 | 58 | 297 | 0.0 | 1.0 | 0.00 | 0.02 | 0.02 | 55 | 1009.8 |
| 20260508225405 | 58 | 336 | 0.0 | 5.0 | 0.00 | 0.02 | 0.02 | 53 | 1009.8 |
| 20260508224905 | 58 | 304 | 0.0 | 7.0 | 0.00 | 0.02 | 0.02 | 54 | 1009.8 |
| 20260508224404 | 58 | 294 | 2.0 | 7.0 | 0.00 | 0.02 | 0.02 | 54 | 1009.8 |
| 20260508223904 | 58 | 300 | 1.0 | 3.0 | 0.00 | 0.02 | 0.02 | 55 | 1009.7 |
| 20260508223404 | 58 | 309 | 1.0 | 7.0 | 0.00 | 0.02 | 0.02 | 55 | 1009.9 |
| 20260508222904 | 58 | 298 | 1.0 | 3.0 | 0.00 | 0.02 | 0.02 | 54 | 1009.9 |
| 20260508222405 | 58 | 285 | 2.0 | 7.0 | 0.00 | 0.02 | 0.02 | 54 | 1009.8 |
| 20260508221905 | 58 | 296 | 0.0 | 7.0 | 0.00 | 0.02 | 0.02 | 55 | 1009.8 |
| 20260508221404 | 58 | 268 | 1.0 | 7.0 | 0.00 | 0.02 | 0.02 | 54 | 1009.8 |
| 20260508220906 | 59 | 300 | 0.0 | 1.0 | 0.00 | 0.02 | 0.02 | 53 | 1009.8 |
| 20260508220404 | 59 | 314 | 3.0 | 8.0 | 0.00 | 0.02 | 0.02 | 53 | 1009.8 |
| 20260508215905 | 60 | 307 | 1.0 | 7.0 | 0.00 | 0.02 | 0.02 | 53 | 1009.8 |
| 20260508215404 | 60 | 305 | 0.0 | 7.0 | 0.00 | 0.02 | 0.02 | 54 | 1009.7 |
| 20260508214904 | 60 | 297 | 0.0 | 3.0 | 0.00 | 0.02 | 0.02 | 55 | 1009.6 |
| 20260508214405 | 60 | 13 | 1.0 | 9.0 | 0.00 | 0.02 | 0.02 | 52 | 1009.7 |
| 20260508213405 | 60 | 314 | 5.0 | 10.0 | 0.00 | 0.02 | 0.02 | 52 | 1009.8 |
| 20260508212905 | 61 | 340 | 1.0 | 8.0 | 0.00 | 0.02 | 0.02 | 50 | 1009.8 |
| 20260508212405 | 61 | 319 | 3.0 | 10.0 | 0.00 | 0.02 | 0.02 | 50 | 1009.8 |
| 20260508211905 | 60 | 334 | 3.0 | 9.0 | 0.00 | 0.02 | 0.02 | 52 | 1010.0 |
| 20260508211405 | 59 | 341 | 1.0 | 10.0 | 0.00 | 0.02 | 0.02 | 56 | 1010.0 |
| 20260508210905 | 59 | 312 | 1.0 | 9.0 | 0.00 | 0.02 | 0.02 | 53 | 1010.1 |
| 20260508210405 | 59 | 324 | 3.0 | 10.0 | 0.00 | 0.02 | 0.02 | 54 | 1010.0 |
| 20260508205905 | 60 | 305 | 1.0 | 9.0 | 0.00 | 0.02 | 0.02 | 52 | 1010.1 |
| 20260508205405 | 61 | 326 | 2.0 | 9.0 | 0.00 | 0.02 | 0.02 | 51 | 1010.0 |
| 20260508204905 | 61 | 309 | 2.0 | 9.0 | 0.00 | 0.02 | 0.02 | 49 | 1009.8 |
| 20260508204405 | 62 | 333 | 2.0 | 12.0 | 0.00 | 0.02 | 0.02 | 55 | 1009.9 |
| 20260508203906 | 62 | 318 | 1.0 | 7.0 | 0.00 | 0.02 | 0.02 | 50 | 1009.9 |
| 20260508202904 | 60 | 323 | 1.0 | 6.0 | 0.00 | 0.02 | 0.02 | 54 | 1009.9 |
| 20260508201904 | 60 | 347 | 0.0 | 6.0 | 0.00 | 0.02 | 0.02 | 52 | 1009.8 |
| 20260508201405 | 60 | 332 | 0.0 | 1.0 | 0.00 | 0.02 | 0.02 | 52 | 1009.9 |
| 20260508200903 | 60 | 321 | 0.0 | 8.0 | 0.00 | 0.02 | 0.02 | 50 | 1009.8 |
| 20260508200405 | 59 | 329 | 2.0 | 9.0 | 0.00 | 0.02 | 0.02 | 49 | 1009.8 |
| 20260508195905 | 59 | 326 | 2.0 | 6.0 | 0.00 | 0.02 | 0.02 | 49 | 1009.7 |
| 20260508195404 | 59 | 316 | 0.0 | 1.0 | 0.00 | 0.02 | 0.02 | 48 | 1009.8 |
| 20260508194405 | 59 | 305 | 1.0 | 8.0 | 0.00 | 0.02 | 0.02 | 49 | 1009.7 |
| 20260508193904 | 59 | 322 | 1.0 | 8.0 | 0.00 | 0.02 | 0.02 | 49 | 1009.7 |
| 20260508192904 | 60 | 348 | 3.0 | 12.0 | 0.00 | 0.02 | 0.02 | 44 | 1009.6 |
| 20260508191904 | 62 | 282 | 6.0 | 15.0 | 0.00 | 0.02 | 0.02 | 43 | 1009.6 |
| 20260508191404 | 62 | 306 | 2.0 | 10.0 | 0.00 | 0.02 | 0.02 | 43 | 1009.8 |
| 20260508190904 | 60 | 234 | 6.0 | 13.0 | 0.00 | 0.02 | 0.02 | 44 | 1010.0 |
| 20260508190404 | 60 | 254 | 5.0 | 12.0 | 0.00 | 0.02 | 0.02 | 44 | 1009.9 |
| 20260508185904 | 59 | 238 | 5.0 | 13.0 | 0.00 | 0.02 | 0.02 | 43 | 1009.9 |
| 20260508185403 | 59 | 257 | 9.0 | 14.0 | 0.00 | 0.02 | 0.02 | 43 | 1010.0 |
| 20260508184404 | 59 | 241 | 9.0 | 17.0 | 0.00 | 0.02 | 0.02 | 42 | 1009.9 |
| 20260508183904 | 58 | 224 | 6.0 | 13.0 | 0.00 | 0.02 | 0.02 | 43 | 1009.8 |
| 20260508183405 | 58 | 233 | 8.0 | 16.0 | 0.00 | 0.02 | 0.02 | 43 | 1009.8 |
| 20260508182904 | 58 | 254 | 9.0 | 17.0 | 0.00 | 0.02 | 0.02 | 43 | 1009.8 |
| 20260508181904 | 59 | 242 | 12.0 | 20.0 | 0.00 | 0.02 | 0.02 | 42 | 1009.8 |
| 20260508181405 | 59 | 238 | 9.0 | 24.0 | 0.00 | 0.02 | 0.02 | 42 | 1009.9 |
| 20260508180904 | 59 | 257 | 13.0 | 23.0 | 0.00 | 0.02 | 0.02 | 42 | 1009.7 |
| 20260508180404 | 60 | 230 | 9.0 | 16.0 | 0.00 | 0.02 | 0.02 | 42 | 1009.8 |
| 20260508175905 | 60 | 253 | 7.0 | 20.0 | 0.00 | 0.02 | 0.02 | 42 | 1009.8 |
| 20260508174904 | 61 | 262 | 12.0 | 25.0 | 0.00 | 0.02 | 0.02 | 42 | 1009.9 |
| 20260508172404 | 61 | 233 | 8.0 | 21.0 | 0.00 | 0.02 | 0.02 | 41 | 1010.1 |
| 20260508171904 | 61 | 260 | 12.0 | 26.0 | 0.00 | 0.02 | 0.02 | 41 | 1010.0 |
| 20260508171405 | 61 | 214 | 12.0 | 26.0 | 0.00 | 0.02 | 0.02 | 42 | 1010.2 |
| 20260508170905 | 60 | 216 | 10.0 | 21.0 | 0.00 | 0.02 | 0.02 | 43 | 1010.2 |
| 20260508170405 | 59 | 236 | 9.0 | 17.0 | 0.00 | 0.02 | 0.02 | 42 | 1010.2 |
| 20260508165905 | 60 | 240 | 10.0 | 16.0 | 0.00 | 0.02 | 0.02 | 41 | 1010.4 |
| 20260508165405 | 61 | 228 | 8.0 | 18.0 | 0.00 | 0.02 | 0.02 | 43 | 1010.4 |
| 20260508164904 | 61 | 262 | 11.0 | 21.0 | 0.00 | 0.02 | 0.02 | 44 | 1010.5 |
| 20260508163405 | 60 | 272 | 10.0 | 17.0 | 0.00 | 0.02 | 0.02 | 45 | 1010.5 |
| 20260508162906 | 59 | 257 | 10.0 | 17.0 | 0.00 | 0.02 | 0.02 | 42 | 1010.6 |
| 20260508162405 | 60 | 252 | 10.0 | 16.0 | 0.00 | 0.02 | 0.02 | 42 | 1010.6 |
| 20260508161905 | 61 | 232 | 10.0 | 18.0 | 0.00 | 0.02 | 0.02 | 42 | 1010.6 |
| 20260508161406 | 59 | 244 | 6.0 | 21.0 | 0.00 | 0.02 | 0.02 | 44 | 1010.5 |
| 20260508160905 | 58 | 210 | 6.0 | 14.0 | 0.00 | 0.02 | 0.02 | 44 | 1010.7 |
| 20260508160405 | 57 | 255 | 8.0 | 17.0 | 0.00 | 0.02 | 0.02 | 45 | 1010.9 |
| 20260508155905 | 58 | 213 | 12.0 | 20.0 | 0.00 | 0.02 | 0.02 | 44 | 1010.9 |
| 20260508155405 | 58 | 225 | 11.0 | 16.0 | 0.00 | 0.02 | 0.02 | 45 | 1010.8 |
| 20260508154905 | 57 | 233 | 9.0 | 17.0 | 0.00 | 0.02 | 0.02 | 44 | 1011.0 |
| 20260508153405 | 59 | 268 | 7.0 | 14.0 | 0.00 | 0.02 | 0.02 | 44 | 1010.9 |
| 20260508152904 | 59 | 223 | 6.0 | 12.0 | 0.00 | 0.02 | 0.02 | 43 | 1010.8 |
| 20260508152405 | 59 | 283 | 6.0 | 15.0 | 0.00 | 0.02 | 0.02 | 40 | 1010.9 |
| 20260508151905 | 60 | 259 | 8.0 | 16.0 | 0.00 | 0.02 | 0.02 | 43 | 1010.8 |
| 20260508150904 | 59 | 280 | 6.0 | 12.0 | 0.00 | 0.02 | 0.02 | 44 | 1010.8 |
| 20260508150405 | 59 | 231 | 7.0 | 12.0 | 0.00 | 0.02 | 0.02 | 42 | 1010.9 |
| 20260508145905 | 59 | 238 | 6.0 | 13.0 | 0.00 | 0.02 | 0.02 | 44 | 1010.8 |
| 20260508145405 | 57 | 238 | 3.0 | 6.0 | 0.00 | 0.02 | 0.02 | 45 | 1010.9 |
| 20260508144905 | 57 | 309 | 3.0 | 9.0 | 0.00 | 0.02 | 0.02 | 48 | 1010.9 |
| 20260508144405 | 57 | 300 | 2.0 | 12.0 | 0.00 | 0.02 | 0.02 | 47 | 1010.9 |
| 20260508143905 | 57 | 263 | 5.0 | 12.0 | 0.00 | 0.02 | 0.02 | 45 | 1010.9 |
| 20260508143404 | 58 | 236 | 5.0 | 12.0 | 0.00 | 0.02 | 0.02 | 49 | 1010.9 |
| 20260508142904 | 57 | 264 | 1.0 | 12.0 | 0.00 | 0.02 | 0.02 | 47 | 1010.9 |
| 20260508142404 | 56 | 193 | 4.0 | 10.0 | 0.00 | 0.02 | 0.02 | 49 | 1011.0 |
| 20260508141404 | 55 | 228 | 6.0 | 12.0 | 0.00 | 0.02 | 0.02 | 51 | 1011.2 |
| 20260508140404 | 55 | 224 | 6.0 | 13.0 | 0.00 | 0.02 | 0.02 | 54 | 1011.2 |
| 20260508135904 | 54 | 282 | 4.0 | 12.0 | 0.00 | 0.02 | 0.02 | 55 | 1011.2 |
| 20260508135403 | 54 | 240 | 2.0 | 12.0 | 0.00 | 0.02 | 0.02 | 53 | 1011.2 |
| 20260508134404 | 54 | 228 | 6.0 | 14.0 | 0.00 | 0.02 | 0.02 | 58 | 1011.1 |
| 20260508133905 | 54 | 262 | 1.0 | 9.0 | 0.00 | 0.02 | 0.02 | 61 | 1011.1 |
| 20260508133403 | 54 | 236 | 5.0 | 8.0 | 0.00 | 0.02 | 0.02 | 63 | 1011.1 |
| 20260508132903 | 53 | 223 | 2.0 | 7.0 | 0.00 | 0.02 | 0.02 | 64 | 1011.2 |
| 20260508131904 | 52 | 243 | 5.0 | 12.0 | 0.00 | 0.02 | 0.02 | 65 | 1011.2 |
| 20260508131405 | 52 | 250 | 6.0 | 12.0 | 0.00 | 0.02 | 0.02 | 66 | 1011.2 |
| 20260508130904 | 52 | 229 | 5.0 | 12.0 | 0.00 | 0.02 | 0.02 | 66 | 1011.2 |
| 20260508130404 | 51 | 249 | 1.0 | 9.0 | 0.00 | 0.02 | 0.02 | 67 | 1011.2 |
| 20260508125904 | 51 | 261 | 3.0 | 10.0 | 0.00 | 0.02 | 0.02 | 67 | 1011.1 |
| 20260508125404 | 51 | 267 | 6.0 | 8.0 | 0.00 | 0.02 | 0.02 | 67 | 1011.1 |
| 20260508124903 | 51 | 316 | 2.0 | 7.0 | 0.00 | 0.02 | 0.02 | 67 | 1011.1 |
| 20260508124404 | 50 | 288 | 1.0 | 10.0 | 0.00 | 0.02 | 0.02 | 69 | 1011.2 |
| 20260508123404 | 50 | 262 | 5.0 | 10.0 | 0.00 | 0.02 | 0.02 | 69 | 1011.3 |
| 20260508122404 | 50 | 250 | 2.0 | 12.0 | 0.00 | 0.02 | 0.02 | 70 | 1011.4 |
| 20260508121904 | 50 | 272 | 6.0 | 12.0 | 0.00 | 0.02 | 0.02 | 70 | 1011.5 |
| 20260508121405 | 50 | 265 | 8.0 | 12.0 | 0.00 | 0.02 | 0.02 | 70 | 1011.4 |
| 20260508120904 | 50 | 258 | 5.0 | 12.0 | 0.00 | 0.02 | 0.02 | 71 | 1011.3 |
| 20260508120404 | 49 | 264 | 5.0 | 16.0 | 0.00 | 0.02 | 0.02 | 72 | 1011.5 |
| 20260508115904 | 49 | 308 | 5.0 | 10.0 | 0.00 | 0.02 | 0.02 | 73 | 1011.4 |
| 20260508115404 | 49 | 277 | 5.0 | 13.0 | 0.00 | 0.02 | 0.02 | 73 | 1011.3 |
| 20260508114904 | 49 | 287 | 5.0 | 12.0 | 0.00 | 0.02 | 0.02 | 73 | 1011.3 |
| 20260508114405 | 49 | 273 | 1.0 | 10.0 | 0.00 | 0.02 | 0.02 | 75 | 1011.3 |
| 20260508113905 | 49 | 257 | 6.0 | 12.0 | 0.00 | 0.02 | 0.02 | 76 | 1011.2 |
| 20260508113404 | 49 | 261 | 4.0 | 12.0 | 0.00 | 0.02 | 0.02 | 76 | 1011.2 |
| 20260508112904 | 48 | 235 | 3.0 | 9.0 | 0.00 | 0.02 | 0.02 | 77 | 1011.1 |
| 20260508112404 | 48 | 257 | 5.0 | 10.0 | 0.00 | 0.02 | 0.02 | 78 | 1011.1 |
| 20260508111404 | 47 | 269 | 5.0 | 12.0 | 0.00 | 0.02 | 0.02 | 80 | 1011.1 |
| 20260508110905 | 47 | 259 | 0.0 | 6.0 | 0.00 | 0.02 | 0.02 | 82 | 1011.1 |
| 20260508110405 | 47 | 270 | 1.0 | 8.0 | 0.00 | 0.02 | 0.02 | 83 | 1011.0 |
| 20260508105905 | 46 | 291 | 1.0 | 7.0 | 0.00 | 0.02 | 0.02 | 84 | 1010.9 |
| 20260508105404 | 45 | 315 | 1.0 | 5.0 | 0.00 | 0.02 | 0.02 | 85 | 1011.0 |
| 20260508104904 | 45 | 273 | 1.0 | 8.0 | 0.00 | 0.02 | 0.02 | 86 | 1010.9 |
| 20260508104404 | 45 | 296 | 0.0 | 0.0 | 0.00 | 0.02 | 0.02 | 86 | 1010.8 |
| 20260508103904 | 45 | 299 | 0.0 | 0.0 | 0.00 | 0.02 | 0.02 | 86 | 1010.6 |
| 20260508103405 | 45 | 301 | 0.0 | 0.0 | 0.00 | 0.02 | 0.02 | 86 | 1010.6 |
| 20260508102905 | 44 | 271 | 0.0 | 0.0 | 0.00 | 0.02 | 0.02 | 86 | 1010.5 |
| 20260508102404 | 44 | 269 | 0.0 | 0.0 | 0.00 | 0.02 | 0.02 | 86 | 1010.4 |
| 20260508101904 | 44 | 269 | 0.0 | 0.0 | 0.00 | 0.02 | 0.02 | 85 | 1010.4 |
| 20260508101405 | 44 | 269 | 0.0 | 0.0 | 0.00 | 0.02 | 0.02 | 85 | 1010.4 |
| 20260508100904 | 44 | 273 | 0.0 | 0.0 | 0.00 | 0.02 | 0.02 | 85 | 1010.3 |
| 20260508100404 | 44 | 274 | 0.0 | 0.0 | 0.00 | 0.02 | 0.02 | 85 | 1010.3 |
| 20260508095905 | 44 | 271 | 0.0 | 0.0 | 0.00 | 0.02 | 0.02 | 86 | 1010.3 |
| 20260508095405 | 44 | 273 | 0.0 | 0.0 | 0.00 | 0.02 | 0.02 | 86 | 1010.3 |
| 20260508094405 | 44 | 282 | 0.0 | 0.0 | 0.00 | 0.02 | 0.02 | 85 | 1010.3 |
| 20260508093905 | 45 | 279 | 0.0 | 0.0 | 0.00 | 0.02 | 0.02 | 85 | 1010.3 |
| 20260508092904 | 45 | 290 | 0.0 | 0.0 | 0.01 | 0.02 | 0.02 | 85 | 1010.3 |
| 20260508092405 | 45 | 289 | 0.0 | 0.0 | 0.01 | 0.02 | 0.02 | 85 | 1010.2 |
| 20260508091904 | 45 | 294 | 0.0 | 0.0 | 0.01 | 0.02 | 0.02 | 85 | 1010.2 |
| 20260508091405 | 45 | 294 | 0.0 | 0.0 | 0.01 | 0.02 | 0.02 | 85 | 1010.2 |
| 20260508090906 | 45 | 294 | 0.0 | 0.0 | 0.01 | 0.02 | 0.02 | 85 | 1010.1 |
| 20260508090405 | 45 | 301 | 0.0 | 0.0 | 0.01 | 0.02 | 0.02 | 85 | 1010.0 |
| 20260508085906 | 45 | 305 | 0.0 | 0.0 | 0.01 | 0.03 | 0.02 | 84 | 1009.8 |
| 20260508085405 | 46 | 305 | 0.0 | 0.0 | 0.01 | 0.03 | 0.02 | 84 | 1009.7 |
| 20260508084405 | 46 | 304 | 0.0 | 0.0 | 0.01 | 0.03 | 0.02 | 82 | 1009.8 |
| 20260508083403 | 46 | 315 | 0.0 | 3.0 | 0.00 | 0.03 | 0.01 | 81 | 1010.2 |
| 20260508082904 | 46 | 276 | 2.0 | 9.0 | 0.00 | 0.03 | 0.01 | 80 | 1010.2 |
| 20260508082404 | 46 | 298 | 2.0 | 5.0 | 0.00 | 0.04 | 0.01 | 79 | 1010.1 |
| 20260508081904 | 46 | 309 | 3.0 | 8.0 | 0.00 | 0.04 | 0.01 | 79 | 1010.1 |
| 20260508081403 | 46 | 312 | 1.0 | 8.0 | 0.00 | 0.04 | 0.01 | 78 | 1010.1 |
| 20260508080904 | 46 | 313 | 0.0 | 7.0 | 0.00 | 0.05 | 0.01 | 78 | 1010.1 |
| 20260508080405 | 46 | 296 | 2.0 | 6.0 | 0.00 | 0.05 | 0.01 | 78 | 1009.9 |
| 20260508075904 | 46 | 315 | 1.0 | 3.0 | 0.00 | 0.05 | 0.01 | 78 | 1009.7 |
| 20260508075404 | 46 | 329 | 0.0 | 5.0 | 0.00 | 0.06 | 0.01 | 77 | 1009.7 |
| 20260508074904 | 46 | 15 | 1.0 | 3.0 | 0.00 | 0.06 | 0.01 | 77 | 1009.7 |
| 20260508074403 | 46 | 331 | 1.0 | 9.0 | 0.00 | 0.07 | 0.01 | 76 | 1009.7 |
| 20260508073903 | 47 | 5 | 0.0 | 3.0 | 0.00 | 0.08 | 0.01 | 76 | 1009.5 |
| 20260508073404 | 47 | 338 | 1.0 | 3.0 | 0.00 | 0.11 | 0.01 | 75 | 1009.6 |
| 20260508072904 | 47 | 4 | 0.0 | 12.0 | 0.00 | 0.11 | 0.01 | 75 | 1009.6 |
| 20260508072405 | 47 | 9 | 0.0 | 12.0 | 0.00 | 0.12 | 0.01 | 75 | 1009.7 |
| 20260508071904 | 47 | 317 | 2.0 | 7.0 | 0.00 | 0.12 | 0.01 | 74 | 1009.8 |
| 20260508071404 | 47 | 83 | 0.0 | 6.0 | 0.00 | 0.12 | 0.01 | 73 | 1009.7 |
| 20260508070904 | 47 | 343 | 0.0 | 1.0 | 0.00 | 0.12 | 0.01 | 73 | 1009.6 |
| 20260508070403 | 47 | 343 | 0.0 | 5.0 | 0.01 | 0.12 | 0.01 | 72 | 1009.6 |
| 20260508065904 | 48 | 356 | 0.0 | 2.0 | 0.01 | 0.13 | 0.01 | 71 | 1009.6 |
| 20260508065405 | 48 | 34 | 0.0 | 1.0 | 0.01 | 0.13 | 0.01 | 70 | 1009.6 |
| 20260508064904 | 48 | 350 | 1.0 | 5.0 | 0.01 | 0.13 | 0.01 | 70 | 1009.8 |
| 20260508064404 | 48 | 31 | 0.0 | 1.0 | 0.01 | 0.13 | 0.01 | 70 | 1010.0 |
| 20260508063904 | 48 | 311 | 0.0 | 1.0 | 0.01 | 0.13 | 0.01 | 69 | 1010.0 |
| 20260508063404 | 48 | 53 | 0.0 | 1.0 | 0.01 | 0.14 | 0.01 | 69 | 1010.0 |
| 20260508062904 | 48 | 311 | 0.0 | 3.0 | 0.01 | 0.14 | 0.01 | 70 | 1010.1 |
| 20260508062404 | 48 | 326 | 5.0 | 9.0 | 0.01 | 0.14 | 0.01 | 69 | 1010.1 |
| 20260508061904 | 49 | 311 | 5.0 | 12.0 | 0.01 | 0.14 | 0.01 | 68 | 1010.1 |